Погода в Тамбове

Поиск расширенной информации на нашем сайте:

Полезная информация:

Новости сайта



02.01.2020
Опубликован Долгосрочный прогноз погоды по городам России и ближнего зарубежья на январь 2020 года.
Карты: Прогноз на январь и февраль 2020 года, Сравнение прогнозируемой аномалии приземной температуры воздуха на январь 2020 года по разным моделям.




Погода в Тамбове - сегодня

Время (UTC), дата Ветер
(°,м/с) 
Видим.   Явления Облачность Т
(°С)
Тd
(°С)
f(%) Тe
(°С)
Pmin
(гПа)
dP
(гПа)
Po
(мм)
O2
(г/м3)
Тmin Tmax R s Состояние
почвы
12 03.03.21 290 (З) 8-11{12}  10 км    8/4 1020 м средняя 
[Sc|Ac trans]
-0.6 -7 62 -5  1014.3  0.8  748  303           
15 03.03.21 270 (З) 2{12}  10 км    3/0 верхняя 
[Ci fib]
-2.2 -8.1 64 -3  1014.8  0.4  748  305    -0.3  0.0     
18 03.03.21 230 (ЮЗ) 10 км    5/0 средняя, верхняя 
[Ac trans|Ci fib]
-2.2 -6.5 72 -6  1014.5  -0.3  748  305           
21 03.03.21 220 (ЮЗ) 10 км    9/8 1500 м средняя 
[Sc|Ac trans]
-0.5 -4.6 74 -4  1012.8  -1.5  747  302           
00 04.03.21 230 (ЮЗ) 6{10}  10 км    8/6 1200 м средняя 
[Sc|Ac trans]
-0.9 -4.8 75 -5  1010.9  -1.9  746  302           
03 04.03.21 200 (Ю) 6{10}  10 км    10/8 1470 м средняя 
[Sc|Ac trans]
-1.3 -4.6 78 -5  1008.9  -1.9  744  302  -3.1      неравномерный
мокрый или
старый снег
100% 
06 04.03.21 230 (ЮЗ) 7-10{12}  10 км    9/6 1500 м средняя 
[Sc|Ac trans]
-0.2 -3.8 77 -4  1007  -1.9  743  300           
09 04.03.21 220 (ЮЗ) 7-11{11}  10 км    8/0 средняя 
[Ac trans]
+1.5 -3 72 -2  1005.2  -1.7  742  297           
12 04.03.21 200 (Ю) 7-11{14}  10 км    8/0 средняя, верхняя 
[Ac trans|Ci sp]
+2.4 -2.5 70 -1  1003.3  -1.8  740  296           
15 04.03.21 230 (ЮЗ) 5{12}  10 км    10/10 960 м 
[Sc]
+2.1 -2.6 71 -1  1002.2  -1.1  739  296    +2.8       
18 04.03.21 240 (ЮЗ) 10 км    10/10 700 м 
[Sc]
+1.1 -2.1 79 -1  1001.7  -0.5  739  297           
21 04.03.21 260 (З) 5{13}  10 км    10/10 480 м 
[Sc]
-0.4 -3.1 82 -3  1001.3  -0.5  739  298           
00 05.03.21 250 (З) 10 км    10/10 400 м 
[Sc]
-0.8 -2.4 89 -4  1001.4  0.1  739  299           
03 05.03.21 250 (З) 10 км    10/10 480 м 
[Sc]
-0.4 -2.5 86 -3  1002.9  1.5  740  299  -0.9      неравномерный
мокрый или
старый снег
100% 
06 05.03.21 340 (С) 4{10}  10 км  в посл. час ливневой снег  9/6 700 м кучево-дожд., средняя 
[Cb calv|Ac trans]
-1.3 -4.2 81 -4  1005.6  2.6  742  301  -1.8         
09 05.03.21 310 (СЗ) 10 км    4/4 1000 м 
[Cu hum]
-0.3 -5.4 68 -3  1008.2  2.6  744  301           
12 05.03.21 310 (СЗ) 10 км    5/5 1000 м 
[Cu hum]
+0.1 -6.3 62 -2  1009.8  1.5  745  301           
15 05.03.21 280 (З) 10 км    3/0 средняя 
[Ac trans]
-2.2 -6.9 70 -3  1011.6  1.7  746  304    +0.3  0.0     
18 05.03.21 220 (ЮЗ) 10 км    ясно 
-5.3 -7.8 83 -7  1013.5  1.7  747  308           
21 05.03.21 тихо ()   10 км    3/0 средняя 
[Ac trans]
-6.9 -8.5 88 -7  1014.9  1.3  748  310           
00 06.03.21 тихо ()   10 км  слаб. снег  10/10 1000 м 
[Ns]
-5.9 -7.8 86 -6  1015.7  0.8  749  309           
03 06.03.21 тихо ()   10 км  {снег}  6/0 средняя 
[Ac trans]
-6.4 -7.2 94 -6  1015.6  -0.1  749  310  -7.6    0.2  неравномерный
мокрый или
старый снег
100% 
06 06.03.21 тихо ()   10 км  {снег}  8/0 средняя 
[Ac trans]
-6.4 -7.6 91 -6  1015.9  0.3  749  310           
09 06.03.21 270 (З) 10 км    8/0 средняя 
[Ac trans]
-0.8 -6.5 65 -2  1014.7  -0.9  748  303           
12 06.03.21 250 (З) 1600 м  ливневой снег  10/10 330 м кучево-дожд. 
[Cb calv]
-3.7 -5.2 89 -6  1014.2  -0.6  748  306           
Время (UTC), дата Ветер
(°,м/с) 
Видим.   Явления Облачность Т
(°С)
Тd
(°С)
f(%) Тe
(°С)
Pmin
(гПа)
dP
(гПа)
Po
(мм)
O2
(г/м3)
Тmin Tmax R s Состояние
почвы

Для получения пояснительной информации подведите курсор к названию столбца.

ПОГОДА в Тамбове - архив

Всё, что Вы хотите узнать о погоде в Тамбове - удобно и подробно!

Выберите нужную дату (начиная с 1 января 2019* года) и нажмите кнопку "Найти".
Будут отображены архивные сводки погоды по пункту Тамбов, начиная с указанной даты.


Отображать данные в формате CSV (для использования в таблицах Excel)


Внимание! Наш архив погоды предназначен исключительно для личного некоммерческого использования в познавательных целях. Если Вам необходимы официальные справки о состоянии погоды (для производственных, юридических, коммерческих и т.п. целей), обращайтесь в органы Росгидромета.

*Примечание: данная дата относится к архиву по метеостанциям СССР (Россия, СНГ, Балтия).
Архив по метеостанциям Зарубежной Европы и Азии (кроме Китая) хранится 10 дней, по другим регионам земного шара (Китай, Африка, Америка, Австралия, Океания) - 1 день.

Тамбов - район местоположения метеостанции


Название, широта, долгота, высота метеостанции:
Тамбов 52.8°ш. 41.3°д. 128 м над ур. моря [Российская Федерация]

Дополнительная информация

В oтличие oт бoльшинства пoгoдных сайтoв мы публикуем пoдрoбную метеoинфoрмацию в детальнoм прoфессиoнальнoм фoрмате.

Характеристики температуры и влажнoсти вoздуха измеряются на высoте 2 м в тени вдали oт зданий и деревьев.
Скoрoсть ветра измеряется на высoте 10 м (на урoвне рoста челoвека скoрoсть ветра ниже в 1.5-2 раза). Если метеoстанция нахoдится в гoрoде или в лесу, тo скoрoсть ветра занижена на 2-4 м/с пo сравнению с oткрытым местoм. Скoрoсть ветра над акватoриями крупных рек и oзёр, а также на вершинах хoлмoв на 2-5 м/с выше, чем в oбычных услoвиях.
Атмoсфернoе давление в разных тoчках местнoсти мoжет значительнo oтличаться oт давления на метеoстанции, в зависимoсти oт услoвий рельефа (при пoдъёме на 10 м давление пoнижается примернo на 1 мм рт.ст.).